contact:dominique.lefevre@mio.osupytheas.fr, maurice.libes@osupytheas.fr, didier.mallarino@osupytheas.fr
Project:EMSO http://www.emso-fr.org/EMSO-France
Depth: 2436.0 m
Title:EMSO Ligure Ouest : Data MII capteur CSTAR
DateTime,Latitude,Longitude,Instrument_Serial,Reference_Counts,Signal_Counts,Corrected_Signal_raw_counts,Calculated_Beam_c_inverse_meters,Internal_thermistor_counts
DateTime,Latitude,Longitude,Instrument_Serial,Reference_Counts,Signal_Counts,Corrected_Signal_raw_counts,Calculated_Beam_c_inverse_meters,Internal_thermistor_counts
2023-04-26T00:02:01,42.805,6.029,CST-1368DR,4316,4771,11737,01.142,552
2023-04-26T00:05:02,42.805,6.029,CST-1368DR,4316,4774,11746,01.139,552
2023-04-26T00:08:04,42.805,6.029,CST-1368DR,4316,4773,11741,01.141,552
2023-04-26T00:11:05,42.805,6.029,CST-1368DR,4316,4771,11738,01.142,552
2023-04-26T00:14:07,42.805,6.029,CST-1368DR,4316,4773,11743,01.140,552
2023-04-26T00:17:09,42.805,6.029,CST-1368DR,4316,4772,11741,01.141,552
2023-04-26T00:20:10,42.805,6.029,CST-1368DR,4316,4771,11738,01.142,552
2023-04-26T00:23:12,42.805,6.029,CST-1368DR,4316,4774,11745,01.139,551
2023-04-26T00:26:13,42.805,6.029,CST-1368DR,4316,4774,11744,01.140,551
2023-04-26T00:29:15,42.805,6.029,CST-1368DR,4316,4773,11742,01.140,551
2023-04-26T00:32:16,42.805,6.029,CST-1368DR,4316,4774,11746,01.139,551
2023-04-26T00:35:18,42.805,6.029,CST-1368DR,4316,4770,11735,01.143,551
2023-04-26T00:38:20,42.805,6.029,CST-1368DR,4316,4771,11738,01.142,551
2023-04-26T00:41:21,42.805,6.029,CST-1368DR,4316,4773,11742,01.140,551
2023-04-26T00:44:23,42.805,6.029,CST-1368DR,4316,4779,11757,01.135,552
2023-04-26T00:47:24,42.805,6.029,CST-1368DR,4316,4772,11741,01.141,551
2023-04-26T00:50:26,42.805,6.029,CST-1368DR,4316,4770,11735,01.143,551
2023-04-26T00:53:28,42.805,6.029,CST-1368DR,4316,4770,11736,01.143,552
2023-04-26T00:56:29,42.805,6.029,CST-1368DR,4316,4767,11727,01.146,552
2023-04-26T00:59:31,42.805,6.029,CST-1368DR,4316,4773,11743,01.140,551
2023-04-26T01:02:32,42.805,6.029,CST-1368DR,4316,4775,11748,01.138,551
2023-04-26T01:05:34,42.805,6.029,CST-1368DR,4316,4772,11741,01.141,551
2023-04-26T01:08:35,42.805,6.029,CST-1368DR,4316,4767,11729,01.145,551
2023-04-26T01:11:37,42.805,6.029,CST-1368DR,4316,4769,11733,01.144,552
2023-04-26T01:14:39,42.805,6.029,CST-1368DR,4316,4772,11740,01.141,551
2023-04-26T01:17:40,42.805,6.029,CST-1368DR,4316,4773,11742,01.140,551
2023-04-26T01:20:42,42.805,6.029,CST-1368DR,4316,4775,11748,01.138,552
2023-04-26T01:23:43,42.805,6.029,CST-1368DR,4316,4777,11753,01.137,551
2023-04-26T01:26:45,42.805,6.029,CST-1368DR,4316,4773,11741,01.141,551
2023-04-26T01:29:46,42.805,6.029,CST-1368DR,4316,4775,11748,01.138,552
2023-04-26T01:32:48,42.805,6.029,CST-1368DR,4316,4773,11743,01.140,552
2023-04-26T01:35:50,42.805,6.029,CST-1368DR,4316,4774,11744,01.140,551
2023-04-26T01:38:51,42.805,6.029,CST-1368DR,4316,4772,11741,01.141,551
2023-04-26T01:41:53,42.805,6.029,CST-1368DR,4316,4773,11741,01.141,551
2023-04-26T01:44:54,42.805,6.029,CST-1368DR,4316,4773,11743,01.140,551
2023-04-26T01:47:56,42.805,6.029,CST-1368DR,4316,4769,11732,01.144,552
2023-04-26T01:50:58,42.805,6.029,CST-1368DR,4316,4768,11730,01.145,551
2023-04-26T01:53:59,42.805,6.029,CST-1368DR,4316,4770,11735,01.143,551
2023-04-26T01:57:01,42.805,6.029,CST-1368DR,4316,4768,11730,01.145,551
2023-04-26T02:00:02,42.805,6.029,CST-1368DR,4316,4773,11743,01.140,552
2023-04-26T02:03:04,42.805,6.029,CST-1368DR,4316,4769,11733,01.144,551
2023-04-26T02:06:05,42.805,6.029,CST-1368DR,4316,4772,11740,01.141,551
2023-04-26T02:09:07,42.805,6.029,CST-1368DR,4316,4769,11733,01.144,552
2023-04-26T02:12:09,42.805,6.029,CST-1368DR,4316,4768,11730,01.145,552
2023-04-26T02:15:10,42.805,6.029,CST-1368DR,4316,4771,11737,01.142,552
2023-04-26T02:18:12,42.805,6.029,CST-1368DR,4316,4771,11737,01.142,551
2023-04-26T02:21:13,42.805,6.029,CST-1368DR,4316,4775,11747,01.139,551
2023-04-26T02:24:15,42.805,6.029,CST-1368DR,4316,4771,11738,01.142,551
2023-04-26T02:27:16,42.805,6.029,CST-1368DR,4316,4771,11738,01.142,551
2023-04-26T02:30:18,42.805,6.029,CST-1368DR,4316,4772,11740,01.141,551
2023-04-26T02:33:20,42.805,6.029,CST-1368DR,4316,4775,11747,01.139,551
2023-04-26T02:36:21,42.805,6.029,CST-1368DR,4316,4772,11740,01.141,552
2023-04-26T02:39:23,42.805,6.029,CST-1368DR,4316,4770,11734,01.143,552
2023-04-26T02:42:24,42.805,6.029,CST-1368DR,4316,4770,11736,01.143,551
2023-04-26T02:45:26,42.805,6.029,CST-1368DR,4316,4768,11730,01.145,551
2023-04-26T02:48:27,42.805,6.029,CST-1368DR,4316,4770,11736,01.143,552
2023-04-26T02:51:29,42.805,6.029,CST-1368DR,4316,4771,11738,01.142,552
2023-04-26T02:54:31,42.805,6.029,CST-1368DR,4316,4767,11729,01.145,552
2023-04-26T02:57:32,42.805,6.029,CST-1368DR,4316,4771,11737,01.142,552
2023-04-26T03:00:34,42.805,6.029,CST-1368DR,4316,4771,11738,01.142,551
2023-04-26T03:03:35,42.805,6.029,CST-1368DR,4316,4769,11732,01.144,551
2023-04-26T03:06:37,42.805,6.029,CST-1368DR,4316,4771,11738,01.142,551
2023-04-26T03:09:39,42.805,6.029,CST-1368DR,4316,4772,11740,01.141,551
2023-04-26T03:12:40,42.805,6.029,CST-1368DR,4316,4772,11741,01.141,551
2023-04-26T03:15:42,42.805,6.029,CST-1368DR,4316,4765,11724,01.147,551
2023-04-26T03:18:43,42.805,6.029,CST-1368DR,4316,4772,11740,01.141,551
2023-04-26T03:21:45,42.805,6.029,CST-1368DR,4316,4772,11740,01.141,552
2023-04-26T03:24:46,42.805,6.029,CST-1368DR,4316,4775,11748,01.138,551
2023-04-26T03:27:48,42.805,6.029,CST-1368DR,4316,4770,11735,01.143,551
2023-04-26T03:30:50,42.805,6.029,CST-1368DR,4316,4769,11732,01.144,551
2023-04-26T03:33:51,42.805,6.029,CST-1368DR,4316,4775,11746,01.139,551
2023-04-26T03:36:53,42.805,6.029,CST-1368DR,4316,4775,11746,01.139,552
2023-04-26T03:39:54,42.805,6.029,CST-1368DR,4316,4770,11735,01.143,552
2023-04-26T03:42:56,42.805,6.029,CST-1368DR,4316,4769,11732,01.144,552
2023-04-26T03:45:57,42.805,6.029,CST-1368DR,4316,4772,11740,01.141,551
2023-04-26T03:48:59,42.805,6.029,CST-1368DR,4316,4774,11746,01.139,552
2023-04-26T03:52:01,42.805,6.029,CST-1368DR,4316,4776,11749,01.138,552
2023-04-26T03:55:02,42.805,6.029,CST-1368DR,4316,4776,11751,01.137,552
2023-04-26T03:58:04,42.805,6.029,CST-1368DR,4316,4773,11743,01.140,551
2023-04-26T04:01:05,42.805,6.029,CST-1368DR,4316,4773,11743,01.140,552
2023-04-26T04:04:07,42.805,6.029,CST-1368DR,4316,4772,11740,01.141,551
2023-04-26T04:07:09,42.805,6.029,CST-1368DR,4316,4774,11745,01.139,552
2023-04-26T04:10:10,42.805,6.029,CST-1368DR,4316,4774,11745,01.139,551
2023-04-26T04:13:12,42.805,6.029,CST-1368DR,4316,4770,11735,01.143,551
2023-04-26T04:16:13,42.805,6.029,CST-1368DR,4316,4773,11743,01.140,550
2023-04-26T04:19:15,42.805,6.029,CST-1368DR,4316,4772,11741,01.141,552
2023-04-26T04:22:16,42.805,6.029,CST-1368DR,4316,4772,11740,01.141,551
2023-04-26T04:25:18,42.805,6.029,CST-1368DR,4316,4773,11743,01.140,552
2023-04-26T04:28:20,42.805,6.029,CST-1368DR,4316,4771,11737,01.142,551
2023-04-26T04:31:21,42.805,6.029,CST-1368DR,4316,4771,11738,01.142,551
2023-04-26T04:34:23,42.805,6.029,CST-1368DR,4316,4773,11742,01.140,551
2023-04-26T04:37:24,42.805,6.029,CST-1368DR,4316,4769,11732,01.144,551
2023-04-26T04:40:26,42.805,6.029,CST-1368DR,4316,4772,11740,01.141,551
2023-04-26T04:43:27,42.805,6.029,CST-1368DR,4316,4771,11738,01.142,552
2023-04-26T04:46:29,42.805,6.029,CST-1368DR,4316,4773,11742,01.140,551
2023-04-26T04:49:31,42.805,6.029,CST-1368DR,4316,4771,11737,01.142,551
2023-04-26T04:52:32,42.805,6.029,CST-1368DR,4316,4777,11751,01.137,551
2023-04-26T04:55:34,42.805,6.029,CST-1368DR,4316,4774,11745,01.139,552
2023-04-26T04:58:35,42.805,6.029,CST-1368DR,4316,4770,11734,01.143,552
2023-04-26T05:01:37,42.805,6.029,CST-1368DR,4316,4772,11740,01.141,551
2023-04-26T05:04:39,42.805,6.029,CST-1368DR,4316,4771,11738,01.142,552
2023-04-26T05:07:40,42.805,6.029,CST-1368DR,4316,4773,11742,01.140,552
2023-04-26T05:10:42,42.805,6.029,CST-1368DR,4316,4772,11741,01.141,551
2023-04-26T05:13:43,42.805,6.029,CST-1368DR,4316,4773,11741,01.141,552
2023-04-26T05:16:45,42.805,6.029,CST-1368DR,4316,4776,11750,01.138,551
2023-04-26T05:19:46,42.805,6.029,CST-1368DR,4316,4773,11743,01.140,551
2023-04-26T05:22:48,42.805,6.029,CST-1368DR,4315,4775,11751,01.137,551
2023-04-26T05:25:50,42.805,6.029,CST-1368DR,4316,4774,11745,01.139,552
2023-04-26T05:28:51,42.805,6.029,CST-1368DR,4316,4771,11738,01.142,552
2023-04-26T05:31:53,42.805,6.029,CST-1368DR,4315,4768,11732,01.144,552
2023-04-26T05:34:54,42.805,6.029,CST-1368DR,4316,4774,11745,01.139,552
2023-04-26T05:37:56,42.805,6.029,CST-1368DR,4316,4775,11746,01.139,552
2023-04-26T05:40:57,42.805,6.029,CST-1368DR,4316,4772,11740,01.141,552
2023-04-26T05:43:59,42.805,6.029,CST-1368DR,4316,4775,11747,01.139,551
2023-04-26T05:47:01,42.805,6.029,CST-1368DR,4316,4773,11743,01.140,551
2023-04-26T05:50:02,42.805,6.029,CST-1368DR,4316,4773,11743,01.140,552
2023-04-26T05:53:04,42.805,6.029,CST-1368DR,4316,4774,11745,01.139,551
2023-04-26T05:56:05,42.805,6.029,CST-1368DR,4316,4774,11745,01.139,551
2023-04-26T05:59:07,42.805,6.029,CST-1368DR,4316,4774,11745,01.139,552
2023-04-26T06:02:09,42.805,6.029,CST-1368DR,4316,4774,11744,01.140,552
2023-04-26T06:05:10,42.805,6.029,CST-1368DR,4316,4772,11741,01.141,551
2023-04-26T06:08:12,42.805,6.029,CST-1368DR,4316,4769,11732,01.144,551
2023-04-26T06:11:13,42.805,6.029,CST-1368DR,4316,4776,11749,01.138,551
2023-04-26T06:14:15,42.805,6.029,CST-1368DR,4316,4774,11745,01.139,551
2023-04-26T06:17:16,42.805,6.029,CST-1368DR,4315,4771,11739,01.142,552
2023-04-26T06:20:18,42.805,6.029,CST-1368DR,4316,4770,11734,01.143,551
2023-04-26T06:23:20,42.805,6.029,CST-1368DR,4316,4775,11746,01.139,551
2023-04-26T06:26:21,42.805,6.029,CST-1368DR,4316,4772,11740,01.141,551
2023-04-26T06:29:23,42.805,6.029,CST-1368DR,4316,4773,11743,01.140,551
2023-04-26T06:32:24,42.805,6.029,CST-1368DR,4315,4774,11747,01.139,552
2023-04-26T06:35:26,42.805,6.029,CST-1368DR,4315,4773,11744,01.140,551
2023-04-26T06:38:27,42.805,6.029,CST-1368DR,4315,4774,11748,01.138,551
2023-04-26T06:41:29,42.805,6.029,CST-1368DR,4315,4772,11743,01.140,552
2023-04-26T06:44:31,42.805,6.029,CST-1368DR,4315,4772,11743,01.140,552
2023-04-26T06:47:32,42.805,6.029,CST-1368DR,4315,4769,11734,01.143,551
2023-04-26T06:50:34,42.805,6.029,CST-1368DR,4315,4770,11737,01.142,551
2023-04-26T06:53:35,42.805,6.029,CST-1368DR,4315,4778,11757,01.135,552
2023-04-26T06:56:37,42.805,6.029,CST-1368DR,4315,4775,11749,01.138,551
2023-04-26T06:59:38,42.805,6.029,CST-1368DR,4316,4780,11761,01.134,551
2023-04-26T07:02:40,42.805,6.029,CST-1368DR,4315,4775,11751,01.137,551
2023-04-26T07:05:42,42.805,6.029,CST-1368DR,4316,4781,11762,01.134,551
2023-04-26T07:08:43,42.805,6.029,CST-1368DR,4316,4773,11741,01.141,552
2023-04-26T07:11:45,42.805,6.029,CST-1368DR,4315,4771,11741,01.141,551
2023-04-26T07:14:46,42.805,6.029,CST-1368DR,4315,4770,11739,01.142,551
2023-04-26T07:17:48,42.805,6.029,CST-1368DR,4315,4773,11745,01.139,552
2023-04-26T07:20:50,42.805,6.029,CST-1368DR,4315,4772,11742,01.140,552
2023-04-26T07:23:51,42.805,6.029,CST-1368DR,4315,4773,11744,01.140,552
2023-04-26T07:26:53,42.805,6.029,CST-1368DR,4315,4769,11735,01.143,552
2023-04-26T07:29:54,42.805,6.029,CST-1368DR,4315,4771,11740,01.141,552
2023-04-26T07:32:56,42.805,6.029,CST-1368DR,4315,4771,11739,01.142,552
2023-04-26T07:35:57,42.805,6.029,CST-1368DR,4315,4772,11743,01.140,551
2023-04-26T07:38:59,42.805,6.029,CST-1368DR,4315,4773,11745,01.139,551
2023-04-26T07:42:01,42.805,6.029,CST-1368DR,4315,4773,11746,01.139,552
2023-04-26T07:45:02,42.805,6.029,CST-1368DR,4315,4778,11756,01.136,551
2023-04-26T07:48:04,42.805,6.029,CST-1368DR,4315,4773,11745,01.139,551
2023-04-26T07:51:05,42.805,6.029,CST-1368DR,4315,4770,11739,01.142,551
2023-04-26T07:54:07,42.805,6.029,CST-1368DR,4315,4769,11736,01.143,551
2023-04-26T07:57:08,42.805,6.029,CST-1368DR,4315,4780,11762,01.134,551
2023-04-26T08:00:10,42.805,6.029,CST-1368DR,4315,4775,11749,01.138,551
2023-04-26T08:03:12,42.805,6.029,CST-1368DR,4316,4782,11765,01.133,551
2023-04-26T08:06:13,42.805,6.029,CST-1368DR,4315,4775,11751,01.137,551
2023-04-26T08:09:15,42.805,6.029,CST-1368DR,4315,4772,11743,01.140,552
2023-04-26T08:12:16,42.805,6.029,CST-1368DR,4315,4773,11745,01.139,552
2023-04-26T08:15:18,42.805,6.029,CST-1368DR,4315,4771,11741,01.141,551
2023-04-26T08:18:20,42.805,6.029,CST-1368DR,4315,4771,11741,01.141,552
2023-04-26T08:21:21,42.805,6.029,CST-1368DR,4316,4773,11741,01.141,551
2023-04-26T08:24:23,42.805,6.029,CST-1368DR,4315,4773,11745,01.139,552
2023-04-26T08:27:24,42.805,6.029,CST-1368DR,4315,4772,11742,01.140,551
2023-04-26T08:30:29,42.805,6.029,CST-1368DR,4315,4773,11745,01.139,552
2023-04-26T08:33:31,42.805,6.029,CST-1368DR,4315,4777,11755,01.136,551
2023-04-26T08:36:32,42.805,6.029,CST-1368DR,4315,4773,11746,01.139,551
2023-04-26T08:39:34,42.805,6.029,CST-1368DR,4316,4772,11740,01.141,551
2023-04-26T08:42:36,42.805,6.029,CST-1368DR,4315,4771,11740,01.141,551
2023-04-26T08:45:37,42.805,6.029,CST-1368DR,4315,4772,11743,01.140,551
2023-04-26T08:48:39,42.805,6.029,CST-1368DR,4315,4773,11745,01.139,551
2023-04-26T08:51:40,42.805,6.029,CST-1368DR,4315,4770,11738,01.142,552
2023-04-26T08:54:42,42.805,6.029,CST-1368DR,4315,4771,11740,01.141,551
2023-04-26T08:57:43,42.805,6.029,CST-1368DR,4315,4775,11750,01.138,551
2023-04-26T09:00:45,42.805,6.029,CST-1368DR,4315,4773,11745,01.139,551
2023-04-26T09:03:47,42.805,6.029,CST-1368DR,4315,4777,11754,01.136,552
2023-04-26T09:06:48,42.805,6.029,CST-1368DR,4315,4773,11745,01.139,551
2023-04-26T09:09:50,42.805,6.029,CST-1368DR,4315,4769,11735,01.143,552
2023-04-26T09:12:51,42.805,6.029,CST-1368DR,4315,4776,11753,01.137,551
2023-04-26T09:15:53,42.805,6.029,CST-1368DR,4315,4770,11737,01.142,551
2023-04-26T09:18:54,42.805,6.029,CST-1368DR,4315,4772,11743,01.140,551
2023-04-26T09:21:56,42.805,6.029,CST-1368DR,4315,4772,11742,01.140,551
2023-04-26T09:24:58,42.805,6.029,CST-1368DR,4315,4771,11741,01.141,551
2023-04-26T09:27:59,42.805,6.029,CST-1368DR,4315,4772,11742,01.140,551
2023-04-26T09:31:01,42.805,6.029,CST-1368DR,4315,4773,11744,01.140,552
2023-04-26T09:34:02,42.805,6.029,CST-1368DR,4315,4773,11745,01.139,551
2023-04-26T09:37:04,42.805,6.029,CST-1368DR,4315,4771,11740,01.141,552
2023-04-26T09:40:05,42.805,6.029,CST-1368DR,4315,4771,11740,01.141,552
2023-04-26T09:43:07,42.805,6.029,CST-1368DR,4315,4772,11743,01.140,551
2023-04-26T09:46:09,42.805,6.029,CST-1368DR,4315,4770,11739,01.142,552
2023-04-26T09:49:10,42.805,6.029,CST-1368DR,4315,4771,11739,01.142,551
2023-04-26T09:52:12,42.805,6.029,CST-1368DR,4315,4778,11758,01.135,551
2023-04-26T09:55:13,42.805,6.029,CST-1368DR,4315,4772,11743,01.140,551
2023-04-26T09:58:15,42.805,6.029,CST-1368DR,4315,4773,11745,01.139,551
2023-04-26T10:01:16,42.805,6.029,CST-1368DR,4315,4772,11743,01.140,552
2023-04-26T10:04:18,42.805,6.029,CST-1368DR,4315,4772,11743,01.140,551
2023-04-26T10:07:20,42.805,6.029,CST-1368DR,4315,4772,11743,01.140,551
2023-04-26T10:10:21,42.805,6.029,CST-1368DR,4315,4773,11745,01.139,551
2023-04-26T10:13:23,42.805,6.029,CST-1368DR,4315,4768,11733,01.144,552
2023-04-26T10:16:24,42.805,6.029,CST-1368DR,4315,4768,11732,01.144,552
2023-04-26T10:19:26,42.805,6.029,CST-1368DR,4315,4770,11738,01.142,551
2023-04-26T10:22:28,42.805,6.029,CST-1368DR,4315,4748,11684,01.160,552
2023-04-26T10:25:29,42.805,6.029,CST-1368DR,4315,4768,11732,01.144,551
2023-04-26T10:28:31,42.805,6.029,CST-1368DR,4315,4767,11730,01.145,551
2023-04-26T10:31:32,42.805,6.029,CST-1368DR,4315,4767,11730,01.145,551
2023-04-26T10:34:34,42.805,6.029,CST-1368DR,4315,4771,11739,01.142,552
2023-04-26T10:37:35,42.805,6.029,CST-1368DR,4315,4770,11738,01.142,551
2023-04-26T10:40:37,42.805,6.029,CST-1368DR,4315,4768,11732,01.144,552
2023-04-26T10:43:39,42.805,6.029,CST-1368DR,4315,4767,11731,01.144,552
2023-04-26T10:46:40,42.805,6.029,CST-1368DR,4315,4770,11738,01.142,551
2023-04-26T10:49:42,42.805,6.029,CST-1368DR,4315,4766,11729,01.145,552
2023-04-26T10:52:43,42.805,6.029,CST-1368DR,4315,4768,11732,01.144,551
2023-04-26T10:55:45,42.805,6.029,CST-1368DR,4315,4765,11726,01.146,551
2023-04-26T10:58:46,42.805,6.029,CST-1368DR,4315,4769,11735,01.143,552
2023-04-26T11:01:48,42.805,6.029,CST-1368DR,4315,4766,11729,01.145,552
2023-04-26T11:04:50,42.805,6.029,CST-1368DR,4315,4765,11724,01.147,551
2023-04-26T11:07:51,42.805,6.029,CST-1368DR,4315,4768,11732,01.144,551
2023-04-26T11:10:53,42.805,6.029,CST-1368DR,4315,4770,11738,01.142,551
2023-04-26T11:13:54,42.805,6.029,CST-1368DR,4315,4769,11734,01.143,551
2023-04-26T11:16:56,42.805,6.029,CST-1368DR,4315,4762,11718,01.149,551
2023-04-26T11:19:57,42.805,6.029,CST-1368DR,4315,4764,11723,01.147,551
2023-04-26T11:22:59,42.805,6.029,CST-1368DR,4315,4762,11719,01.148,551
2023-04-26T11:26:01,42.805,6.029,CST-1368DR,4315,4763,11720,01.148,551
2023-04-26T11:29:02,42.805,6.029,CST-1368DR,4315,4763,11721,01.148,551
2023-04-26T11:32:04,42.805,6.029,CST-1368DR,4315,4763,11721,01.148,551
2023-04-26T11:35:05,42.805,6.029,CST-1368DR,4315,4761,11715,01.150,551
2023-04-26T11:38:07,42.805,6.029,CST-1368DR,4315,4762,11718,01.149,552
2023-04-26T11:41:09,42.805,6.029,CST-1368DR,4315,4764,11722,01.147,551
2023-04-26T11:44:10,42.805,6.029,CST-1368DR,4315,4762,11718,01.149,551
2023-04-26T11:47:12,42.805,6.029,CST-1368DR,4315,4763,11721,01.148,552
2023-04-26T11:50:13,42.805,6.029,CST-1368DR,4315,4761,11716,01.149,552
2023-04-26T11:53:15,42.805,6.029,CST-1368DR,4315,4762,11718,01.149,552
2023-04-26T11:56:16,42.805,6.029,CST-1368DR,4315,4759,11710,01.151,552
2023-04-26T11:59:18,42.805,6.029,CST-1368DR,4315,4761,11716,01.149,551
2023-04-26T12:02:20,42.805,6.029,CST-1368DR,4315,4770,11737,01.142,552
2023-04-26T12:05:21,42.805,6.029,CST-1368DR,4315,4760,11714,01.150,552
2023-04-26T12:08:23,42.805,6.029,CST-1368DR,4315,4759,11711,01.151,552
2023-04-26T12:11:24,42.805,6.029,CST-1368DR,4315,4770,11737,01.142,552
2023-04-26T12:14:26,42.805,6.029,CST-1368DR,4315,4760,11712,01.151,551
2023-04-26T12:17:27,42.805,6.029,CST-1368DR,4315,4759,11710,01.151,551
2023-04-26T12:20:29,42.805,6.029,CST-1368DR,4315,4762,11718,01.149,551
2023-04-26T12:23:31,42.805,6.029,CST-1368DR,4315,4756,11703,01.154,551
2023-04-26T12:26:32,42.805,6.029,CST-1368DR,4315,4759,11710,01.151,551
2023-04-26T12:29:34,42.805,6.029,CST-1368DR,4315,4761,11715,01.150,551
2023-04-26T12:32:37,42.805,6.029,CST-1368DR,4315,4757,11706,01.153,551
2023-04-26T12:35:39,42.805,6.029,CST-1368DR,4315,4759,11711,01.151,552
2023-04-26T12:38:40,42.805,6.029,CST-1368DR,4315,4759,11710,01.151,551
2023-04-26T12:41:42,42.805,6.029,CST-1368DR,4315,4758,11708,01.152,552
2023-04-26T12:44:43,42.805,6.029,CST-1368DR,4315,4762,11719,01.148,552
2023-04-26T12:47:45,42.805,6.029,CST-1368DR,4315,4759,11711,01.151,552
2023-04-26T12:50:47,42.805,6.029,CST-1368DR,4315,4759,11711,01.151,551
2023-04-26T12:53:48,42.805,6.029,CST-1368DR,4315,4757,11706,01.153,552
2023-04-26T12:56:50,42.805,6.029,CST-1368DR,4315,4759,11711,01.151,552
2023-04-26T12:59:51,42.805,6.029,CST-1368DR,4315,4759,11711,01.151,551
2023-04-26T13:02:53,42.805,6.029,CST-1368DR,4315,4756,11703,01.154,551
2023-04-26T13:05:54,42.805,6.029,CST-1368DR,4315,4760,11712,01.151,551
2023-04-26T13:08:56,42.805,6.029,CST-1368DR,4315,4758,11709,01.152,552
2023-04-26T13:11:58,42.805,6.029,CST-1368DR,4315,4759,11710,01.151,552
2023-04-26T13:14:59,42.805,6.029,CST-1368DR,4315,4761,11715,01.150,551
2023-04-26T13:18:01,42.805,6.029,CST-1368DR,4315,4760,11713,01.150,551
2023-04-26T13:21:02,42.805,6.029,CST-1368DR,4315,4759,11710,01.151,551
2023-04-26T13:24:04,42.805,6.029,CST-1368DR,4315,4760,11714,01.150,552
2023-04-26T13:27:05,42.805,6.029,CST-1368DR,4315,4757,11705,01.153,551
2023-04-26T13:30:07,42.805,6.029,CST-1368DR,4315,4761,11715,01.150,551
2023-04-26T13:33:09,42.805,6.029,CST-1368DR,4315,4759,11710,01.151,552
2023-04-26T13:36:10,42.805,6.029,CST-1368DR,4315,4762,11718,01.149,551
2023-04-26T13:39:12,42.805,6.029,CST-1368DR,4315,4766,11728,01.145,552
2023-04-26T13:42:13,42.805,6.029,CST-1368DR,4315,4761,11715,01.150,552
2023-04-26T13:45:15,42.805,6.029,CST-1368DR,4315,4760,11712,01.151,552
2023-04-26T13:48:17,42.805,6.029,CST-1368DR,4315,4761,11716,01.149,551
2023-04-26T13:51:18,42.805,6.029,CST-1368DR,4315,4760,11713,01.150,551
2023-04-26T13:54:20,42.805,6.029,CST-1368DR,4315,4760,11713,01.150,551
2023-04-26T13:57:21,42.805,6.029,CST-1368DR,4315,4760,11713,01.150,552
2023-04-26T14:00:23,42.805,6.029,CST-1368DR,4315,4761,11716,01.149,551
2023-04-26T14:03:24,42.805,6.029,CST-1368DR,4315,4764,11723,01.147,552
2023-04-26T14:06:26,42.805,6.029,CST-1368DR,4315,4760,11714,01.150,551
2023-04-26T14:09:28,42.805,6.029,CST-1368DR,4315,4761,11716,01.149,551
2023-04-26T14:12:29,42.805,6.029,CST-1368DR,4315,4758,11709,01.152,551
2023-04-26T14:15:31,42.805,6.029,CST-1368DR,4315,4760,11714,01.150,551
2023-04-26T14:18:32,42.805,6.029,CST-1368DR,4315,4759,11711,01.151,551
2023-04-26T14:21:34,42.805,6.029,CST-1368DR,4315,4758,11707,01.152,551
2023-04-26T14:24:35,42.805,6.029,CST-1368DR,4315,4759,11710,01.151,551
2023-04-26T14:27:37,42.805,6.029,CST-1368DR,4315,4760,11712,01.151,551
2023-04-26T14:30:40,42.805,6.029,CST-1368DR,4315,4760,11713,01.150,552
2023-04-26T14:33:41,42.805,6.029,CST-1368DR,4315,4758,11709,01.152,551
2023-04-26T14:36:43,42.805,6.029,CST-1368DR,4315,4758,11708,01.152,551
2023-04-26T14:39:44,42.805,6.029,CST-1368DR,4315,4761,11716,01.149,552
2023-04-26T14:42:46,42.805,6.029,CST-1368DR,4315,4760,11712,01.151,551
2023-04-26T14:45:48,42.805,6.029,CST-1368DR,4315,4759,11711,01.151,552
2023-04-26T14:48:49,42.805,6.029,CST-1368DR,4315,4761,11716,01.149,552
2023-04-26T14:51:51,42.805,6.029,CST-1368DR,4315,4760,11712,01.151,552
2023-04-26T14:54:52,42.805,6.029,CST-1368DR,4315,4757,11707,01.152,551
2023-04-26T14:57:54,42.805,6.029,CST-1368DR,4315,4757,11705,01.153,551
2023-04-26T15:00:55,42.805,6.029,CST-1368DR,4315,4760,11714,01.150,552
2023-04-26T15:03:57,42.805,6.029,CST-1368DR,4315,4758,11708,01.152,551
2023-04-26T15:06:59,42.805,6.029,CST-1368DR,4315,4760,11712,01.151,551
2023-04-26T15:10:00,42.805,6.029,CST-1368DR,4315,4758,11707,01.152,551
2023-04-26T15:13:02,42.805,6.029,CST-1368DR,4315,4762,11719,01.148,551
2023-04-26T15:16:03,42.805,6.029,CST-1368DR,4315,4762,11718,01.149,551
2023-04-26T15:19:05,42.805,6.029,CST-1368DR,4315,4761,11715,01.150,551
2023-04-26T15:22:07,42.805,6.029,CST-1368DR,4315,4760,11713,01.150,552
2023-04-26T15:25:08,42.805,6.029,CST-1368DR,4315,4759,11710,01.151,551
2023-04-26T15:28:10,42.805,6.029,CST-1368DR,4315,4758,11708,01.152,552
2023-04-26T15:31:11,42.805,6.029,CST-1368DR,4315,4764,11722,01.147,552
2023-04-26T15:34:13,42.805,6.029,CST-1368DR,4315,4758,11707,01.152,551
2023-04-26T15:37:14,42.805,6.029,CST-1368DR,4315,4756,11704,01.153,552
2023-04-26T15:40:16,42.805,6.029,CST-1368DR,4315,4760,11712,01.151,552
2023-04-26T15:43:18,42.805,6.029,CST-1368DR,4315,4758,11707,01.152,551
2023-04-26T15:46:19,42.805,6.029,CST-1368DR,4315,4760,11713,01.150,551
2023-04-26T15:49:21,42.805,6.029,CST-1368DR,4315,4760,11713,01.150,551
2023-04-26T15:52:22,42.805,6.029,CST-1368DR,4315,4757,11705,01.153,552
2023-04-26T15:55:24,42.805,6.029,CST-1368DR,4315,4759,11710,01.151,551
2023-04-26T15:58:25,42.805,6.029,CST-1368DR,4315,4757,11707,01.152,551
2023-04-26T16:01:27,42.805,6.029,CST-1368DR,4315,4757,11705,01.153,552
2023-04-26T16:04:29,42.805,6.029,CST-1368DR,4315,4757,11705,01.153,551
2023-04-26T16:07:30,42.805,6.029,CST-1368DR,4315,4757,11705,01.153,552
2023-04-26T16:10:32,42.805,6.029,CST-1368DR,4315,4756,11703,01.154,551
2023-04-26T16:13:33,42.805,6.029,CST-1368DR,4315,4756,11704,01.153,551
2023-04-26T16:16:35,42.805,6.029,CST-1368DR,4315,4757,11705,01.153,551
2023-04-26T16:19:36,42.805,6.029,CST-1368DR,4315,4761,11716,01.149,551
2023-04-26T16:22:38,42.805,6.029,CST-1368DR,4315,4764,11723,01.147,552
2023-04-26T16:25:40,42.805,6.029,CST-1368DR,4315,4760,11714,01.150,552
2023-04-26T16:28:41,42.805,6.029,CST-1368DR,4315,4758,11708,01.152,552
2023-04-26T16:31:43,42.805,6.029,CST-1368DR,4315,4762,11718,01.149,551
2023-04-26T16:34:44,42.805,6.029,CST-1368DR,4315,4759,11710,01.151,552
2023-04-26T16:37:46,42.805,6.029,CST-1368DR,4315,4759,11711,01.151,551